Weather History for Evergreen, AL

Change the Weather History Date:

Saturday, May 18, 2013

  Actual Average (KPRN) Record (KPRN)
Temperature  
Mean Temperature 78 °F -  
Max Temperature 87 °F 84 °F 95 °F (1951)
Min Temperature 69 °F 59 °F 43 °F (2011)
Cooling Degree Days 12    
Growing Degree Days 28 (Base 50)    
Moisture  
Dew Point 69 °F    
Average Humidity 82    
Maximum Humidity 94    
Minimum Humidity 57    
Precipitation  
Precipitation 0.00 in - - ()
Sea Level Pressure  
Sea Level Pressure 30.07 in    
Wind  
Wind Speed 5 mph (South)    
Max Wind Speed 9 mph    
Max Gust Speed -    
Visibility 8 miles    
Events Rain , Thunderstorm    
Averages and records for this station are not official NWS values.
T = Trace of Precipitation, MM = Missing Value Source: NWS Daily Summary

Daily Weather History Graph

Daily Weather History Graph

Search for Another Location

Airport:

Trip Planner

Search our weather history database for the weather conditions in past years. The results will help you decide how hot, cold, wet, or windy it might be!

Date:

Astronomy

May. 18, 2013 Rise Set
Actual Time 5:50 AM CDT 7:39 PM CDT
Civil Twilight 5:23 AM CDT 8:06 PM CDT
Nautical Twilight 4:50 AM CDT 8:38 PM CDT
Astronomical Twilight 4:16 AM CDT 9:13 PM CDT
Moon 1:07 PM CDT (5/18) 1:15 AM CDT (5/18)
Length of Visible Light 14h 43m
Length of Day
13h 49m
First Quarter, 55% of the Moon is Illuminated
May 18
First Quarter
May 24
Full
May 31
Last Quarter
Jun 8
New
Jun 16
First Quarter

Hourly Weather History & Observations

Time (CDT) Temp. Heat Index Dew Point Humidity Pressure Visibility Wind Dir Wind Speed Gust Speed Precip Events Conditions
12:27 AM 69.8 °F - 66.2 °F 88% 30.07 in 6.0 mi South 3.5 mph - N/A   Mostly Cloudy
12:39 AM 69.8 °F - 66.2 °F 88% 30.06 in 6.0 mi SSW 4.6 mph - N/A   Scattered Clouds
12:53 AM 70.0 °F - 68.0 °F 93% 30.06 in 6.0 mi South 3.5 mph - N/A   Scattered Clouds
12:57 AM 71.6 °F - 68.0 °F 88% 30.06 in 6.0 mi South 3.5 mph - N/A   Mostly Cloudy
1:53 AM 70.0 °F - 68.0 °F 93% 30.04 in 6.0 mi South 4.6 mph - N/A   Mostly Cloudy
2:07 AM 71.6 °F - 68.0 °F 88% 30.05 in 7.0 mi South 4.6 mph - N/A   Overcast
2:53 AM 72.0 °F - 68.0 °F 87% 30.04 in 6.0 mi SSW 3.5 mph - N/A   Overcast
3:53 AM 72.0 °F - 68.0 °F 87% 30.04 in 6.0 mi SSW 6.9 mph - N/A   Overcast
4:16 AM 71.6 °F - 68.0 °F 88% 30.05 in 7.0 mi SW 4.6 mph - N/A   Overcast
4:28 AM 71.6 °F - 68.0 °F 88% 30.05 in 8.0 mi SW 5.8 mph - N/A   Overcast
4:37 AM 71.6 °F - 68.0 °F 88% 30.05 in 8.0 mi SSW 5.8 mph - N/A   Overcast
4:53 AM 72.0 °F - 68.0 °F 87% 30.05 in 9.0 mi SW 6.9 mph - N/A   Overcast
5:23 AM 71.6 °F - 68.0 °F 88% 30.06 in 9.0 mi SSE 6.9 mph - N/A Thunderstorm Overcast
5:38 AM 71.6 °F - 69.8 °F 94% 30.06 in 8.0 mi South 6.9 mph - N/A   Overcast
5:53 AM 72.0 °F - 69.1 °F 91% 30.06 in 8.0 mi South 4.6 mph - 0.00 in Rain Light Rain
6:08 AM 71.6 °F - 69.8 °F 94% 30.07 in 8.0 mi South 5.8 mph - 0.00 in   Overcast
6:53 AM 72.0 °F - 69.1 °F 91% 30.07 in 5.0 mi South 5.8 mph - 0.00 in   Overcast
7:13 AM 71.6 °F - 69.8 °F 94% 30.09 in 4.0 mi South 3.5 mph - N/A   Overcast
7:53 AM 73.0 °F - 69.1 °F 87% 30.11 in 6.0 mi East 3.5 mph - N/A   Overcast
8:16 AM 73.4 °F - 69.8 °F 88% 30.12 in 5.0 mi SE 3.5 mph - N/A   Overcast
8:27 AM 73.4 °F - 69.8 °F 88% 30.12 in 5.0 mi ESE 4.6 mph - N/A   Overcast
8:44 AM 73.4 °F - 69.8 °F 88% 30.12 in 6.0 mi SSE 5.8 mph - N/A   Haze
8:53 AM 73.9 °F - 70.0 °F 87% 30.11 in 7.0 mi SSE 6.9 mph - N/A   Overcast
9:01 AM 75.2 °F - 69.8 °F 83% 30.11 in 8.0 mi South 5.8 mph - N/A   Overcast
9:13 AM 75.2 °F - 69.8 °F 83% 30.12 in 8.0 mi South 6.9 mph - N/A   Overcast
9:53 AM 78.1 °F - 69.1 °F 74% 30.10 in 10.0 mi South 8.1 mph - N/A   Mostly Cloudy
10:34 AM 78.8 °F - 69.8 °F 74% 30.11 in 10.0 mi South 6.9 mph - N/A   Overcast
10:53 AM 80.1 °F 82.9 °F 69.1 °F 69% 30.10 in 10.0 mi SSW 6.9 mph - N/A   Overcast
11:53 AM 81.0 °F 84.1 °F 69.1 °F 67% 30.10 in 10.0 mi WSW 6.9 mph - N/A   Overcast
12:53 PM 81.0 °F 83.8 °F 68.0 °F 65% 30.09 in 10.0 mi Variable 3.5 mph - N/A   Overcast
2:53 PM 84.0 °F 87.8 °F 69.1 °F 61% 30.06 in 10.0 mi South 5.8 mph - N/A   Mostly Cloudy
3:53 PM 84.9 °F 88.2 °F 68.0 °F 57% 30.03 in 10.0 mi SSW 6.9 mph - N/A   Mostly Cloudy
4:53 PM 86.0 °F 90.1 °F 69.1 °F 57% 30.02 in 10.0 mi South 5.8 mph - N/A   Partly Cloudy
5:53 PM 84.9 °F 89.4 °F 70.0 °F 61% 30.01 in 10.0 mi South 4.6 mph - N/A   Clear
6:53 PM 82.9 °F 87.0 °F 70.0 °F 65% 30.02 in 10.0 mi South 3.5 mph - N/A   Partly Cloudy
7:53 PM 80.1 °F 83.2 °F 70.0 °F 71% 30.04 in 10.0 mi South 6.9 mph - N/A   Mostly Cloudy
8:53 PM 77.0 °F - 69.1 °F 76% 30.04 in 10.0 mi South 9.2 mph - N/A   Clear
9:53 PM 75.0 °F - 68.0 °F 79% 30.05 in 10.0 mi South 8.1 mph - N/A   Partly Cloudy
10:53 PM 73.0 °F - 68.0 °F 84% 30.05 in 10.0 mi South 5.8 mph - N/A   Clear
11:20 PM 71.6 °F - 68.0 °F 88% 30.06 in 10.0 mi South 5.8 mph - N/A   Mostly Cloudy
11:45 PM 71.6 °F - 68.0 °F 88% 30.06 in 10.0 mi SSW 4.6 mph - N/A   Partly Cloudy
11:53 PM 72.0 °F - 68.0 °F 87% 30.05 in 10.0 mi South 5.8 mph - N/A   Scattered Clouds